Flag Weather past 2 weeks in Toronto, Ontario, Canada

Now
57 °F

Sprinkles. Partly sunny.


Feels Like: 51 °F
Forecast: N/A
Wind: 38 mph from Southwest

Location: Toronto Pearson International Airport

Current Time: Nov 24, 2014 at 4:56:42 PM

Latest Report: Nov 24, 2014 at 4:00 PM


Visibility: 15 mi

Pressure: 29.24 "Hg

Humidity: 67%

Dew point: 46 °F

Location of TorontoLocation

Historic Weather in Toronto — Graph

°F

Toronto temperature yesterday

Maximum temperature yesterday: 46 °F (at 11:00 AM)
Minimum temperature yesterday: 41 °F (at 8:00 AM)
Average temperature yesterday: 45 °F

Past Weeks' High & Low Weather Summary

 TemperatureHumidityPressure
High64 °F (Nov 24, 12:00 PM)100% (Nov 17, 3:00 AM)30.46 "Hg (Nov 17, 3:00 AM)
Low14 °F (Nov 19, 6:00 AM)44% (Nov 15, 1:00 PM)29.13 "Hg (Nov 24, 12:53 PM)
Average33 °F75%29.94 "Hg
* Reported Nov 9 3:00 PM — Nov 24 3:00 PM, Toronto, Weather by CustomWeather, © 2014

Note: Actual official high and low records may vary slightly from our data, if they occured in-between our weather recording intervals... More about our weather records

Advertising

Toronto weather history for previous 24 hours

 ConditionsComfort  
Time TempWeatherWind HumidityBarometerVisibility
3:00 PM
Nov 24
59 °FBroken clouds.28 mph68%29.20 "Hg15 mi
2:00 PM59 °FScattered showers. Mostly cloudy.30 mph68%29.17 "Hg15 mi
1:00 PM64 °FSprinkles. Mostly cloudy.25 mph64%29.14 "Hg15 mi
12:53 PM64 °FSprinkles. Mostly cloudy.22 mph64%29.13 "Hg15 mi
12:00 PM64 °FPartly sunny.18 mph68%29.15 "Hg15 mi
11:00 AM61 °FBroken clouds.16 mph77%29.19 "Hg15 mi
10:45 AM59 °FScattered showers. Partly sunny.22 mph82%29.20 "Hg15 mi
10:00 AM59 °FSprinkles. Overcast.20 mph82%29.21 "Hg15 mi
9:00 AM59 °FPartly sunny.20 mph82%29.20 "Hg15 mi
8:00 AM57 °FMore clouds than sun.17 mph88%29.18 "Hg15 mi
7:55 AM57 °FMore clouds than sun.22 mph88%29.18 "Hg15 mi
7:00 AM54 °FLight rain. Mostly cloudy.15 mph94%29.19 "Hg15 mi
6:00 AM50 °FLight rain. Fog.10 mph94%29.20 "Hg6 mi
5:00 AM48 °FOvercast.10 mph94%29.22 "Hg12 mi
4:00 AM48 °FFog.15 mph94%29.27 "Hg6 mi
3:00 AM46 °FLight rain. Fog.15 mph93%29.32 "Hg6 mi
2:53 AM46 °FRain. Fog.12 mph93%29.33 "Hg4 mi
2:00 AM45 °FHeavy rain. Fog.13 mph93%29.38 "Hg4 mi
1:46 AM45 °FHeavy rain. Fog.12 mph93%29.40 "Hg4 mi
1:00 AM45 °FSprinkles. Overcast.12 mph93%29.47 "Hg6 mi
12:00 AM46 °FSprinkles. Mostly cloudy.13 mph76%29.57 "Hg10 mi
11:50 PM
Nov 23
46 °FSprinkles. Mostly cloudy.7 mph76%29.57 "Hg10 mi
11:00 PM45 °FMostly cloudy.7 mph81%29.62 "Hg10 mi
10:00 PM46 °FMostly cloudy.7 mph76%29.67 "Hg10 mi
9:00 PM46 °FMostly cloudy.9 mph82%29.70 "Hg12 mi
8:00 PM46 °FOvercast.6 mph82%29.77 "Hg12 mi
7:00 PM45 °FPassing clouds.6 mph87%29.80 "Hg12 mi
6:00 PM45 °FPassing clouds.7 mph87%29.83 "Hg12 mi
5:00 PM45 °FPassing clouds.7 mph93%29.85 "Hg12 mi
4:00 PM46 °FPartly sunny.6 mph93%29.87 "Hg12 mi
Weather by CustomWeather, © 2014

See weather overviewHow to use our weather pages